FW7576 Weather Reports


time (UTC)temp
C
wind
direction
speed
KPH
gust
KPH
rain 1hr
cm
rain 24hr
cm
rain mn
cm
humidity
%
barometer
mb
20260505153049 11 255 14.5 27.4 0.00 0.00 0.00 40 1008.0
20260505151543 11 243 11.3 24.1 0.00 0.00 0.00 41 1008.2
20260505124540 8 283 4.8 11.3 0.00 0.00 0.00 46 1008.7
20260505123037 8 288 6.4 12.9 0.00 0.00 0.00 48 1008.0
20260505121537 7 247 3.2 11.3 0.00 0.00 0.00 50 1008.7
20260505120040 7 257 4.8 8.0 0.00 0.00 0.00 49 1008.1
20260505114544 7 0 1.6 6.4 0.00 0.00 0.00 49 1007.5
20260505113037 7 355 0.0 3.2 0.00 0.00 0.00 50 1006.8
20260505111549 7 283 3.2 9.7 0.00 0.00 0.00 48 1007.3
20260505101539 7 295 4.8 14.5 0.00 0.00 0.00 46 1006.3
20260505100042 7 333 3.2 11.3 0.00 0.00 0.00 46 1005.9
20260505094536 8 310 4.8 16.1 0.00 0.00 0.00 46 1006.2
20260505093035 8 316 3.2 12.9 0.00 0.00 0.00 48 1006.3
20260505091551 8 288 4.8 14.5 0.00 0.00 0.00 47 1006.2
20260505090050 8 337 6.4 14.5 0.00 0.00 0.00 48 1005.7
20260505084536 8 330 4.8 9.7 0.00 0.00 0.00 48 1005.3
20260505083042 8 359 8.0 20.9 0.00 0.00 0.00 47 1005.1
20260505081550 9 4 6.4 14.5 0.00 0.00 0.00 48 1004.8
20260505080041 9 337 4.8 22.5 0.00 0.00 0.00 47 1004.2
20260505074559 10 328 9.7 17.7 0.00 0.00 0.00 46 1004.0
20260505073038 10 21 4.8 25.7 0.00 0.00 0.00 46 1004.0
20260505071536 10 338 4.8 17.7 0.00 0.00 0.00 47 1003.8
20260505070036 11 317 3.2 22.5 0.00 0.00 0.00 46 1003.5
20260505064537 11 327 8.0 27.4 0.00 0.00 0.00 45 1003.2
20260505063041 11 282 4.8 19.3 0.00 0.00 0.00 45 1003.1
20260505061601 12 321 9.7 24.1 0.00 0.00 0.00 44 1003.0
20260505060044 12 308 4.8 16.1 0.00 0.00 0.00 44 1003.1
20260505054541 13 12 6.4 19.3 0.00 0.00 0.00 42 1002.9
20260505053035 14 340 9.7 29.0 0.00 0.00 0.00 40 1002.4
20260505051541 14 302 6.4 14.5 0.00 0.00 0.00 37 1002.0
20260505041535 16 326 6.4 19.3 0.00 0.00 0.00 33 1000.7
20260505040041 16 11 9.7 19.3 0.00 0.00 0.00 32 1000.4
20260505034540 17 290 4.8 17.7 0.00 0.00 0.00 31 1000.5
20260505033046 17 286 6.4 17.7 0.00 0.00 0.00 31 1000.6
20260505031535 17 309 8.0 17.7 0.00 0.00 0.00 31 1000.4
20260505030036 17 270 9.7 25.7 0.00 0.00 0.00 32 1000.0
20260505024602 18 320 8.0 29.0 0.00 0.00 0.00 33 999.7
20260505023042 18 283 11.3 22.5 0.00 0.00 0.00 33 999.6
20260505021549 19 328 12.9 32.2 0.00 0.00 0.00 34 999.4
20260505020044 20 319 8.0 22.5 0.00 0.00 0.00 36 999.0
20260505014538 20 335 6.4 17.7 0.00 0.00 0.00 36 998.6
20260505013036 21 309 8.0 17.7 0.00 0.00 0.00 37 997.9
20260505011547 21 300 3.2 14.5 0.00 0.00 0.00 38 997.0
20260505010037 22 280 8.0 20.9 0.00 0.00 0.00 38 996.8
20260505004544 22 337 9.7 17.7 0.00 0.00 0.00 36 996.4
20260505003037 23 243 6.4 12.9 0.00 0.00 0.00 35 995.3
20260505001537 23 236 6.4 20.9 0.00 0.00 0.00 33 995.2
20260505000035 23 274 11.3 19.3 0.00 0.00 0.00 33 995.3
20260504234535 23 255 12.9 24.1 0.00 0.00 0.00 33 995.5
20260504233043 24 251 17.7 33.8 0.00 0.00 0.00 33 995.9
20260504231539 25 216 22.5 43.5 0.00 0.00 0.00 34 996.1
20260504230037 25 261 14.5 30.6 0.00 0.00 0.00 30 995.7
20260504224535 25 262 14.5 32.2 0.00 0.00 0.00 30 995.9
20260504223036 26 252 17.7 41.8 0.00 0.00 0.00 29 996.0
20260504221546 26 239 19.3 43.5 0.00 0.00 0.00 29 996.1
20260504220058 26 248 20.9 40.2 0.00 0.00 0.00 27 996.3
20260504214539 26 267 16.1 37.0 0.00 0.00 0.00 28 996.6
20260504213036 26 257 19.3 35.4 0.00 0.00 0.00 27 996.6
20260504211535 25 243 16.1 33.8 0.00 0.00 0.00 29 996.7
20260504210032 25 262 22.5 35.4 0.00 0.00 0.00 28 996.9
20260504204556 25 266 16.1 33.8 0.00 0.00 0.00 28 997.1
20260504203038 25 293 17.7 35.4 0.00 0.00 0.00 28 997.3
20260504201537 25 266 12.9 35.4 0.00 0.00 0.00 28 997.4
20260504200042 25 251 16.1 33.8 0.00 0.00 0.00 28 997.4
20260504194540 25 262 12.9 30.6 0.00 0.00 0.00 29 997.5
20260504193041 25 233 12.9 37.0 0.00 0.00 0.00 27 997.6
20260504191541 25 233 12.9 32.2 0.00 0.00 0.00 28 997.9
20260504190039 25 232 14.5 38.6 0.00 0.00 0.00 29 997.7
20260504184537 24 278 11.3 35.4 0.00 0.00 0.00 29 998.0
20260504183041 24 216 16.1 37.0 0.00 0.00 0.00 29 998.4
20260504181543 23 264 20.9 37.0 0.00 0.00 0.00 29 998.3
20260504180039 23 222 12.9 40.2 0.00 0.00 0.00 29 998.4
20260504174538 23 257 14.5 32.2 0.00 0.00 0.00 29 998.5
20260504173035 23 250 22.5 38.6 0.00 0.00 0.00 27 998.7
20260504171535 23 226 14.5 33.8 0.00 0.00 0.00 28 999.0